EHI
0 0 0 0 0 0 0 0 0 0 0 0 0 0 0 0 0 0 0 0 1 2 1 1 2 2 1 0 0 0 0 0 0 0 0 0 0 0 0 0 0 0 0
1 0 0 0 0 0 0 0 0 0 0 0 0 0 0 0 0 0 0 0 1 2 2 1 1 1 0 0 0 0 0 0 0 0 0 0 0 0 0 0 0 0 0
1 0 0 0 0 0 0 0 0 0 0 0 0 0 0 0 0 0 0 0 1 1 1 1 1 0 0 0 0 0 0 0 0 0 0 0 0 0 0 0 0 0 0
1 0 0 0 0 0 0 0 0 0 0 0 0 0 0 0 0 0 0 0 0 0 0 0 0 0 0 0 0 0 0 0 0 0 0 0 0 0 0 0 0 0 0
0 0 0 0 0 0 0 0 0 0 0 0 0 0 0 0 0 0 0 0 0 0 0 0 0 0 0 0 0 0 0 0 0 0 0 0 0 0 0 0 0 0 0
0 0 0 0 0 0 0 0 0 0 0 0 0 0 0 0 0 0 0 0 0 0 0 0 0 0 0 0 0 0 0 0 0 0 0 0 0 0 0 0 0 0 0
0 0 0 0 0 0 0 0 0 0 0 0 0 0 0 0 0 0 0 0 0 0 0 0 0 0 0 0 0 0 0 0 0 0 0 0 0 0 0 0 0 0 0
0 0 0 0 0 0 0 0 0 0 0 0 0 0 0 0 0 0 0 0 0 0 0 0 0 0 0 0 0 0 0 0 0 0 0 0 0 0 0 0 0 0 0
0 0 0 0 0 0 0 0 0 0 0 0 0 0 0 0 0 0 0 0 0 0 0 0 0 0 0 0 0 0 0 0 0 0 0 0 0 0 0 0 0 0 0
1 2 1 0 0 0 0 0 0 0 0 0 0 0 0 0 0 0 0 0 0 0 0 0 0 0 0 0 0 0 0 0 0 0 0 0 0 0 0 0 0 0 0
1 3 2 1 0 0 0 0 0 0 0 0 0 0 0 0 0 0 0 0 0 0 0 0 0 0 0 0 0 0 0 0 0 0 0 0 0 0 0 0 0 0 0
1 2 2 1 0 0 0 0 0 0 0 0 0 0 0 0 0 0 0 0 0 0 0 0 0 0 0 0 0 0 0 0 0 0 0 0 0 0 0 0 0 0 0
0 1 2 2 1 0 1 1 1 0 0 0 0 0 0 0 0 0 0 0 0 0 0 0 0 0 0 0 0 0 0 0 0 0 0 0 0 0 0 0 0 0 0
0 1 2 2 1 0 1 2 2 1 1 1 0 0 0 0 0 0 0 0 0 0 0 0 0 0 0 0 0 0 0 0 0 0 0 0 0 0 0 0 0 0 0
0 0 1 1 1 1 2 3 3 3 2 2 1 0 0 0 0 0 0 0 0 0 0 0 0 0 0 0 0 0 0 0 0 0 0 0 0 0 0 0 0 0 0
0 0 1 2 3 3 4 4 4 3 3 3 2 0 0 0 0 0 0 0 0 0 0 0 0 0 0 0 0 0 0 0 0 0 0 0 0 0 0 0 0 0 0
0 0 1 3 4 5 6 6 5 4 3 2 1 0 0 0 0 0 0 0 0 0 0 0 0 0 0 0 0 0 0 0 0 0 0 0 0 0 0 0 0 0 0
1 1 1 3 5 5 6 6 5 3 1 1 0 0 0 0 0 0 0 0 0 0 0 0 0 0 0 0 0 0 0 0 0 0 0 0 0 0 0 0 0 0 0
2 2 3 3 4 4 4 4 3 1 0 0 0 0 0 0 0 0 0 0 0 0 0 0 0 0 0 0 0 0 0 0 0 0 0 0 0 0 0 0 0 0 0
3 3 3 3 3 3 3 2 1 0 0 0 0 0 0 0 0 0 0 0 0 0 0 0 0 0 0 0 0 0 0 0 0 0 0 0 0 0 0 0 0 0 0
3 3 3 3 3 2 1 1 0 0 0 0 0 0 0 0 0 0 0 0 0 0 0 0 0 0 0 0 0 0 0 0 0 0 0 0 0 0 0 0 0 0 0
2 2 2 2 2 1 0 0 0 0 0 0 0 0 0 0 0 0 0 0 0 0 0 0 0 0 0 0 0 0 0 0 0 0 0 0 0 0 0 0 0 0 0
1 1 1 1 1 0 0 0 0 0 0 0 0 0 0 0 0 0 0 0 0 0 0 0 0 0 0 0 0 0 0 0 0 0 0 0 0 0 0 0 0 0 0
1 0 0 0 0 0 0 0 0 0 0 0 0 0 0 0 0 0 0 0 0 0 0 0 0 0 0 0 0 0 0 0 0 0 0 0 0 0 0 0 0 0 0
1 0 0 0 0 0 0 0 0 0 0 0 0 0 0 0 0 0 0 0 0 0 0 0 0 0 0 0 0 0 0 0 0 0 0 0 0 0 0 0 0 0 0
0 0 0 0 0 0 0 0 0 0 0 0 0 0 0 0 0 0 0 0 0 0 0 0 0 0 0 0 0 0 0 0 0 0 0 0 0 0 0 0 0 0 0
Wind_Speed
4 4 3 2 2 2 2 2 1 1 1 1 3 5 6 5 5 4 4 11 11 10 11 11 11 11 10 10 10 10 10 10 9 9 9 9 9 9 9 9 9 8 8
5 4 3 3 2 2 2 2 2 2 1 1 3 5 6 5 5 5 3 6 10 10 10 10 11 11 10 10 10 10 10 10 9 8 8 8 8 8 8 8 8 8 7
6 5 4 3 3 2 2 2 2 2 2 2 3 4 4 5 5 5 4 3 4 8 9 9 10 10 10 10 10 10 10 10 9 9 8 8 7 7 8 8 8 8 7
7 5 4 3 3 2 2 2 2 2 2 2 2 2 3 4 5 5 4 4 3 4 6 10 9 9 10 10 10 10 10 10 10 9 9 9 8 8 7 7 7 8 7
7 5 4 3 3 3 2 2 2 2 2 2 1 1 2 3 4 5 5 5 5 4 3 7 10 10 11 11 11 10 11 11 10 10 10 10 9 9 8 8 8 8 8
6 5 4 4 4 3 2 2 2 2 2 2 1 1 1 2 3 3 5 5 5 6 5 5 5 6 11 10 10 11 11 11 11 11 11 11 10 9 9 9 9 8 8
6 5 4 4 4 3 3 4 2 2 1 2 3 2 2 1 1 2 3 3 5 6 6 6 4 4 4 9 9 10 11 11 11 10 10 10 10 9 9 9 9 9 9
6 6 5 4 4 3 3 3 3 2 1 2 3 2 2 3 3 2 2 3 4 4 5 7 5 5 4 3 5 10 10 10 11 11 10 10 10 9 10 10 10 10 10
6 5 6 5 4 4 4 3 3 4 2 0 2 4 3 3 2 2 2 2 3 3 4 4 6 6 6 4 4 8 10 10 11 11 11 10 10 9 10 10 10 10 10
6 6 6 6 5 4 4 4 3 3 3 2 0 1 2 4 3 1 2 2 2 3 4 4 5 6 6 5 6 8 11 11 11 11 11 10 10 10 10 10 11 11 11
6 6 6 5 5 4 4 4 4 3 3 3 2 1 1 1 2 2 1 2 2 2 3 4 4 4 5 5 5 8 11 11 11 10 10 9 10 10 10 10 11 11 11
4 6 6 5 5 4 4 4 4 4 3 3 2 2 2 2 2 2 2 2 2 3 3 3 4 4 4 5 8 11 11 11 11 10 10 9 10 10 10 11 11 12 12
4 6 6 5 4 5 5 4 4 4 4 3 3 2 2 2 2 3 3 2 2 2 2 2 3 4 5 5 6 11 12 12 12 11 10 10 10 10 10 11 11 11 12
6 7 6 6 5 5 5 4 3 3 3 3 3 2 2 1 2 2 3 3 1 2 2 3 2 4 4 4 7 11 7 12 12 12 11 11 11 11 10 10 10 10 10
6 7 7 6 6 5 5 5 3 3 3 3 3 2 2 1 1 2 2 3 4 2 3 4 3 3 3 4 7 6 6 11 13 13 13 13 12 12 12 12 11 11 11
6 7 7 6 6 5 6 5 4 3 4 3 3 3 2 2 1 1 1 2 3 4 3 3 3 3 2 4 6 6 7 11 14 14 14 14 13 13 13 13 13 13 12
7 7 7 7 6 6 5 5 5 5 5 4 3 3 4 3 2 1 1 1 2 3 3 3 2 2 2 3 3 4 5 5 6 13 14 14 14 14 14 14 14 13 13
7 7 7 7 6 6 6 6 6 5 5 5 5 4 4 3 3 2 1 2 2 2 3 3 2 2 3 3 3 4 4 5 5 10 13 14 15 15 14 14 14 14 13
6 6 6 6 6 6 6 6 6 5 5 5 5 5 4 4 3 2 3 2 2 2 2 2 3 2 2 2 1 3 4 3 5 7 10 13 14 14 14 14 14 14 14
6 6 5 5 5 5 5 5 5 5 5 4 5 5 5 5 5 4 3 3 3 2 1 2 2 2 2 2 1 2 3 3 4 4 6 6 8 11 12 14 14 14 14
6 6 5 4 4 4 3 4 4 4 4 4 3 3 4 5 6 5 4 4 3 2 2 2 3 2 2 2 2 2 3 3 4 3 3 3 3 4 5 9 12 13 14
5 5 5 4 3 2 3 4 4 3 3 3 3 2 2 3 4 6 7 6 5 4 4 3 3 4 4 3 3 2 2 2 4 2 2 4 2 4 5 5 9 11 12
4 4 4 4 3 1 2 3 5 3 3 2 2 2 1 1 1 2 3 4 5 6 6 4 4 5 5 4 3 3 3 4 5 3 2 4 3 4 5 5 9 10 10
4 4 4 4 3 2 1 2 3 3 2 2 1 2 1 1 1 1 1 1 2 3 4 4 4 5 5 4 4 4 4 4 4 3 2 4 3 4 5 4 8 9 9
5 5 4 4 4 3 4 3 4 2 2 2 2 2 2 2 4 2 1 1 2 3 3 4 5 6 6 7 4 2 2 2 4 4 2 3 3 3 4 4 5 7 8
5 6 6 5 5 4 5 5 4 3 3 2 3 3 5 4 4 4 2 1 2 3 4 5 4 5 4 4 4 3 3 3 3 4 2 2 3 2 3 3 3 3 4
Wind_Direction
157 157 160 164 172 165 164 159 170 168 143 117 137 136 136 143 149 155 167 171 168 167 169 171 171 170 170 171 171 171 169 165 163 163 163 164 165 164 164 162 159 157 156
157 157 157 165 180 178 170 162 155 135 122 115 122 138 141 145 155 160 166 174 174 172 175 178 180 180 180 181 181 180 180 175 173 173 174 174 175 175 175 175 174 171 169
157 157 155 169 185 178 159 133 118 96 95 104 114 137 145 151 160 165 167 169 177 183 183 184 185 186 187 188 189 189 189 186 184 184 183 183 183 185 185 184 185 182 181
156 153 158 172 174 157 142 136 122 101 90 104 120 138 145 156 166 171 175 180 180 190 195 193 191 192 195 197 196 195 195 194 192 193 192 191 193 194 194 195 196 194 194
154 152 160 166 160 141 138 152 115 124 128 125 143 143 155 159 169 177 184 190 193 196 198 205 203 201 204 205 203 203 200 200 200 201 202 202 202 202 203 205 207 205 204
153 148 154 158 150 134 135 128 119 112 138 155 128 110 181 193 181 182 192 191 198 203 200 207 205 213 214 212 211 209 208 206 206 207 208 210 210 209 209 211 213 212 211
154 152 153 153 146 146 156 143 130 118 114 115 81 33 354 334 226 211 194 186 201 203 195 202 202 203 217 219 216 214 215 212 210 210 211 213 215 214 214 216 217 218 218
157 161 154 158 154 143 144 143 133 125 123 125 125 103 18 349 329 256 210 198 201 196 199 204 202 201 206 206 216 215 215 217 216 215 214 213 214 213 214 218 221 222 223
163 160 160 156 156 150 158 161 150 144 149 127 146 142 148 211 284 314 257 221 200 195 205 203 204 204 204 203 209 219 216 217 219 221 219 215 214 216 218 220 222 224 226
162 159 159 158 158 156 162 172 159 153 144 149 180 170 166 160 154 279 316 289 230 210 208 209 206 207 205 201 208 212 215 216 220 223 220 216 214 214 218 222 226 227 229
165 162 162 159 162 163 166 167 151 148 146 151 160 151 113 102 127 144 240 292 297 252 223 216 210 207 201 198 201 212 213 213 216 218 218 216 214 215 219 225 231 234 235
170 171 165 163 166 164 166 168 156 148 150 148 149 143 149 152 178 161 190 236 254 269 248 226 216 210 204 200 209 209 208 209 211 212 213 214 216 220 223 228 234 238 241
177 184 174 168 168 169 167 161 152 156 161 159 165 169 173 181 172 161 159 200 245 279 287 260 230 215 211 202 213 211 210 208 209 212 214 217 221 225 227 231 237 241 244
183 179 175 174 173 170 168 159 154 170 169 174 179 172 179 196 172 170 167 156 161 308 303 273 270 225 218 204 215 211 213 211 212 214 218 222 226 229 232 233 236 240 243
180 176 175 175 175 171 169 163 172 187 176 183 189 189 197 218 187 179 167 160 157 196 265 270 269 253 224 212 216 205 207 214 214 217 221 226 229 232 234 235 236 238 239
179 173 175 177 177 177 175 170 175 184 178 192 197 201 217 224 216 171 157 164 165 170 224 256 246 256 236 223 212 206 213 215 219 222 226 229 232 235 236 236 237 238 238
173 176 178 178 180 182 180 179 190 186 190 205 208 205 225 218 216 224 178 161 168 164 210 268 262 264 234 237 219 218 224 221 227 229 232 234 237 239 239 239 239 239 239
174 175 176 179 187 188 185 188 200 199 197 205 212 209 227 219 218 222 209 214 210 194 191 243 273 271 248 239 229 228 231 227 229 238 237 238 241 242 243 244 244 243 242
170 171 172 181 191 191 192 196 200 203 201 205 205 203 216 210 225 227 222 225 230 222 190 210 254 263 269 263 246 253 247 246 245 244 241 241 243 244 245 246 245 245 245
169 173 174 181 188 190 194 199 198 198 202 206 206 203 206 204 215 222 226 228 225 229 221 224 252 267 270 277 232 254 273 260 258 257 256 252 248 248 248 248 248 246 245
171 172 171 179 185 185 197 189 188 191 199 213 218 215 217 217 216 214 214 211 208 215 226 236 252 263 265 266 249 241 252 271 270 252 267 267 261 259 256 253 251 249 248
156 158 162 161 158 175 177 179 179 179 182 195 217 232 243 238 241 234 228 213 195 200 215 225 240 244 255 248 247 244 249 270 280 267 248 271 255 261 259 248 251 251 250
144 142 142 139 135 131 167 183 190 167 172 194 203 214 243 263 235 250 247 240 232 227 211 205 226 238 244 238 235 251 242 238 249 253 230 268 260 260 263 264 260 258 258
134 127 120 117 105 69 79 152 167 151 137 141 150 169 172 328 360 309 265 269 270 266 248 229 232 245 245 240 225 232 241 254 265 262 203 253 264 259 269 265 263 259 258
109 107 105 103 96 53 43 76 120 121 107 82 66 70 81 57 11 17 62 342 326 316 306 289 271 273 274 265 247 241 257 258 275 272 218 229 260 269 270 266 267 267 267
112 104 91 85 85 65 45 61 99 101 98 83 55 48 56 54 32 36 51 39 337 319 334 338 330 324 314 309 286 233 234 243 259 275 256 227 254 272 288 274 270 278 281